Preview of NWS' New Version of Forecast
This preview is not operational and should not be used for support decisions.

Regional Weather Roundup (RWR)

Issued by National Weather Service (NWS)

                            
000
ASUS42 KTBW 171816
RWRFL 
FLORIDA REGIONAL WEATHER ROUNDUP
NATIONAL WEATHER SERVICE TAMPA BAY RUSKIN FL
200 PM EDT MON JUN 17 2019

NOTE: "FAIR" INDICATES FEW OR NO CLOUDS BELOW 12,000 FEET WITH NO
SIGNIFICANT WEATHER AND/OR OBSTRUCTIONS TO VISIBILITY.

FLZ001>010-012>015-112-114-115-171900-
PANHANDLE FLORIDA
  
CITY           SKY/WX    TMP DP  RH WIND       PRES   REMARKS
PENSACOLA      FAIR      89  76  65 SE12      30.01S HX 100           
PENSACOLA NAS  PTSUNNY   86  77  74 SE13      30.00F HX  97           
MILTON NAS     FAIR      89  74  60 S14       30.00F HX  98           
CRESTVIEW      CLOUDY    87  71  58 VRB3      30.02F                  
DUKE FIELD     PTSUNNY   89  70  52 S12G21    30.00F                  
VALPARAISO     PTSUNNY   88  73  61 SE12      30.01F HX  95           
MARY ESTHER    MOSUNNY   87  76  67 SE13      29.99  HX  97           
TRI COUNTY     FAIR      92  72  51 E8        30.00F HX  99           
PANAMA CITY    PTSUNNY   89  72  56 S13       29.99F HX  96           
TYNDALL AFB    PTSUNNY   86  76  72 S13       30.00F HX  96           
APALACHICOLA   FAIR      83  76  79 S9        30.02F                  

STATION/POSITION SKY/WX   TEMP    WIND        PRES    WAVE   SWELL
                          AIR SEA DIR/SP/G            HT/PER HT/PER
                          (F)     (DEG/KT/KT) (MB)    (FT/S) (FT/S)
30.1N   87.6W                                   N/A     2/ 3
29.2N   88.2W                     160/  8/ 10 1016.3F   2/ 4   2/ 5
PANAMA CITY BEAC                  160/ 12/ 13   N/A
TOWER C          NOT AVBL

$$
FLZ011-016>038-118-127-128-134-139-239-171900-
NORTH FLORIDA
  
CITY           SKY/WX    TMP DP  RH WIND       PRES   REMARKS
MARIANNA       PTSUNNY   87  72  60 E13       30.01F                  
TALLAHASSEE    PTSUNNY   84  77  79 SE10      30.04F                  
PERRY          PTSUNNY   89  73  59 S3        30.04F HX  96           
LIVE OAK       MOSUNNY   88  70  55 VRB5      30.04F                  
CROSS CITY     PTSUNNY   87  72  59 W5        30.03F                  
LAKE CITY      FAIR      88  70  55 S6        30.05F                  
GAINESVILLE    FAIR      92  73  53 MISG      30.05F HX 100           
PALATKA        FAIR      77  73  88 E6        30.07F THUNDER          
MAYPORT NAS    CLOUDY    79  72  79 SW8       30.09S                  
JACKSONVILLE   PTSUNNY   80  71  74 SE15      30.07S                  
JAX NAS        PTSUNNY   80  71  74 E6        30.08F                  
JAX CECIL      PTSUNNY   79  75  89 VRB3      30.07S                  
FERNANDINA BEA FAIR      86  76  70 SE15      30.09S HAZE    HX  96   
ST AUGUSTINE   FAIR      85  75  72 SE13      30.09S                  
PALM COAST     SUNNY     88  73  62 SE15G23   30.06F HX  96           

STATION/POSITION SKY/WX   TEMP    WIND        PRES    WAVE   SWELL
                          AIR SEA DIR/SP/G            HT/PER HT/PER
                          (F)     (DEG/KT/KT) (MB)    (FT/S) (FT/S)
SHELL POINT      NOT AVBL
KEATON BEACH               81     180/ 12/ 13 1017.2F
CEDAR KEY                                       N/A
FERNANDINA                 87 83  140/ 10/ 15 1019.4F
30.7N   81.3W                 83                N/A     2/ 7
MAYPORT                    77 83  230/  5/  7 1019.5R
31.4N   80.9W              81 84  170/  6/  8 1019.4F   2/ 8   2/ 8
ST AUGUSTINE               80 83  130/ 10/ 12 1018.8F

$$
FLZ040-043>046-052-053-057-058-063-144-171900-
INTERIOR CENTRAL FLORIDA
  
CITY           SKY/WX    TMP DP  RH WIND       PRES   REMARKS
OCALA          PTSUNNY   81  73  76 S14       30.05                   
LEESBURG       FAIR      81  72  74 S7        30.05F THUNDER          
SANFORD        FAIR      89  72  56 E14G21    30.03F HX  96           
ORLANDO EXEC   FAIR      87  71  58 SE12      30.04F                  
ORLANDO INTL   PTSUNNY   87  72  60 E10       30.03F                  
KISSIMMEE      FAIR      85  76  74 W5        30.04F                  
WINTER HAVEN   LGT RAIN  79  73  82 W7        30.05F                  
LAKELAND       PTSUNNY   84  73  70 SE7       30.03F                  
BARTOW         LGT RAIN  81  73  78 E15       30.03F                  
SEBRING        FAIR      86  75  68 E8        30.02F HX  95           
OKEECHOBEE     PTSUNNY   84  73  70 SE8       30.03F                  

$$
FLZ041-047-054-059-064-141-147-171900-
EAST CENTRAL FLORIDA
  
CITY           SKY/WX    TMP DP  RH WIND       PRES   REMARKS
DAYTONA BEACH  FAIR      87  75  67 SE9G17    30.05F HX  96           
DELAND         PTSUNNY   88  72  58 E14       30.04F                  
NEW SMYRNA BEA MOSUNNY   86  72  62 SE17      30.07F                  
JFK SPACE CTR  PTSUNNY   85  65  52 SE13G18   30.05F                  
TITUSVILLE     MOSUNNY   86  72  62 SE15      30.07F                  
CAPE CANAVERAL FAIR      82 N/A N/A SE20      30.05F                  
PATRICK AFB    PTSUNNY   83  78  82 SE16      30.06F                  
MELBOURNE      PTSUNNY   84  74  71 E20G28    30.05F                  
VERO BEACH     HVY RAIN  77  75  93 SE16      30.06F FOG              
FT PIERCE      FAIR      84  72  67 SE20G25   30.05F                  
STUART         MOSUNNY   84  72  65 SE15G28   30.07F                  

STATION/POSITION SKY/WX   TEMP    WIND        PRES    WAVE   SWELL
                          AIR SEA DIR/SP/G            HT/PER HT/PER
                          (F)     (DEG/KT/KT) (MB)    (FT/S) (FT/S)
28.5N   80.2W              79 81  140/ 17/ 21 1018.3F   3/ 4
28.9N   78.5W              75 83  170/ 17/ 21   N/A
TRIDENT PIER               81 79  120/  9/ 12 1019.5F
28.4N   80.5W                 78                N/A     3/ 5
27.5N   80.2W                 79                N/A     4/ 4

$$
FLZ050-056-061-142-242-148-248-149-249-151-251-155-255-
160-260-171900-
WEST CENTRAL FLORIDA
  
CITY           SKY/WX    TMP DP  RH WIND       PRES   REMARKS
CRYSTAL RIVER  FAIR      86  73  66 E7        30.02F                  
INVERNESS      FAIR      86  77  74 E7        30.03F HX  97           
BROOKSVILLE    PTSUNNY   88  73  61 SE7       30.02F HX  95           
CLEARWATER AIR RAIN      82  72  69 SE3       30.01F                  
ST PETE CLEARW FAIR      85  74  69 SE9       30.01F                  
TAMPA INTL     LGT RAIN  76  71  85 S6        30.03F FOG              
TAMPA EXEC     FAIR      88  72  58 S14G22    30.02F                  
PLANT CITY     PTSUNNY   88  75  66 S12G18    30.04F HX  97           
MACDILL AFB    PTSUNNY   82  75  78 S8        30.02F                  
PETER O KNIGHT CLOUDY    81  75  83 CALM      30.02F                  
ST PETERSBURG  FAIR      82  75  79 S7        30.05S                  
SARASOTA       FAIR      85  72  65 S9        30.00F                  
VENICE         PTSUNNY   84  75  74 S6        30.03S THUNDER          

STATION/POSITION SKY/WX   TEMP    WIND        PRES    WAVE   SWELL
                          AIR SEA DIR/SP/G            HT/PER HT/PER
                          (F)     (DEG/KT/KT) (MB)    (FT/S) (FT/S)
27.3N   84.2W                 83                N/A     2/ 5
CLEARWATER BEACH                  180/  9/ 12   N/A
MIDDLE TAMPA BAY           85     200/  5/  6 1017.0F
VENICE                     79 85  240/  7/  8 1016.7F

$$
FLZ066-069-070-075>078-162-262-165-265-171900-
SOUTHWEST FLORIDA AND KEYS
  
CITY           SKY/WX    TMP DP  RH WIND       PRES   REMARKS
PUNTA GORDA    FAIR      84  73  69 S5        30.04F                  
FT MYERS       PTSUNNY   78  70  76 S7        30.02F                  
SOUTHWEST INTL FAIR      89  74  60 VRB3      30.03S HX  98           
NAPLES         FAIR      81  74  79 SE8       30.03S                  
IMMOKALEE      FAIR      88  73  62 S9        30.02R HX  96           
MARATHON       LGT RAIN N/A N/A N/A SE5       30.04F                  
KEY WEST NAS   LGT RAIN  79  75  87 S3        30.04F                  
KEY WEST INTL  LGT RAIN  77  74  90 SW6       30.05F                  

STATION/POSITION SKY/WX   TEMP    WIND        PRES    WAVE   SWELL
                          AIR SEA DIR/SP/G            HT/PER HT/PER
                          (F)     (DEG/KT/KT) (MB)    (FT/S) (FT/S)
NAPLES                     80 85              1016.8F
DRY TORTUGAS               83     190/ 12/ 13 1016.8S
SAND KEY                   78                 1017.7F
SOMBRERO KEY               78                 1017.2F

$$
FLZ067-068-071>074-168-172>174-171900-
SOUTHEAST FLORIDA 
  
CITY           SKY/WX    TMP DP  RH WIND       PRES   REMARKS
W PALM BEACH   PTSUNNY   81  74  79 SE14      30.07F                  
BOCA RATON     MOSUNNY   81  73  78 SW12      30.07S                  
FT LAUDER-EXEC PTSUNNY   76  73  91 SW5       30.07S THUNDER          
FT LAUDERDALE  LGT RAIN  76  73  91 W3        30.07S                  
POMPANO BEACH  RAIN      77  73  87 SW6       30.07R FOG              
PEMBROKE PINES RAIN      76  73  91 NE3       30.09R                  
OPA LOCKA      TSTM      76  73  91 NE5       30.07S                  
MIAMI          CLOUDY    81  75  82 E6        30.06F                  
WEST KENDALL   FAIR      81  76  84 E5        30.05S                  
HOMESTEAD      PTSUNNY   85  75  71 S10       30.05R                  

STATION/POSITION SKY/WX   TEMP    WIND        PRES    WAVE   SWELL
                          AIR SEA DIR/SP/G            HT/PER HT/PER
                          (F)     (DEG/KT/KT) (MB)    (FT/S) (FT/S)
VIRGINIA KEY                      170/  8/  9   N/A
LAKE WORTH                 78 83  120/ 15/ 17 1019.3F
SETTLEMENT POINT           74     300/  2/  3 1019.5F

$$